Location: Alfortville
(48.8058°N, 2.4204°E)
Time: 05:06:42
(UTC+00:00)

Cosmos 1980 Rocket - Pass Details

Date: 29 May 2022
Orbit: 827 x 851 km, 71.0° (Epoch: 06 July)

Event Time Altitude Azimuth Distance (km) Brightness Sun altitude
Rises 21:19:02 0° 233° (SW) 3,378 5.3 -12.1°
Reaches altitude 10° 21:21:38 10° 241° (WSW) 2,451 4.7 -12.3°
Maximum altitude 21:26:52 38° 309° (NW) 1,264 3.8 -12.8°
Drops below altitude 10° 21:32:09 10° 17° (NNE) 2,479 5.2 -13.3°
Sets 21:34:48 0° 26° (NNE) 3,421 5.8 -13.5°
